TimeEST,TemperatureF,Dew PointF,Humidity,Sea Level PressureIn,VisibilityMPH,Wind Direction,Wind SpeedMPH,Gust SpeedMPH,PrecipitationIn,Events,Conditions,WindDirDegrees,DateUTC
12:15 AM,57.2,55.4,94,30.24,4.0,SW,15.0,21.9,N/A,,Unknown,220,2011-11-21 05:15:00
12:35 AM,57.2,55.4,94,30.24,1.8,SW,15.0,19.6,N/A,,Unknown,220,2011-11-21 05:35:00
1:15 AM,57.2,55.4,94,30.23,1.2,SW,10.4,-,N/A,,Unknown,230,2011-11-21 06:15:00
1:35 AM,57.2,55.4,94,30.22,0.2,SW,10.4,-,N/A,,Unknown,220,2011-11-21 06:35:00
1:55 AM,57.2,57.2,100,30.23,0.2,SW,11.5,-,N/A,,Unknown,220,2011-11-21 06:55:00
2:15 AM,57.2,57.2,100,30.23,0.2,SW,8.1,-,N/A,,Unknown,230,2011-11-21 07:15:00
2:35 AM,57.2,57.2,100,30.24,0.2,SW,11.5,-,N/A,,Unknown,220,2011-11-21 07:35:00
2:55 AM,57.2,57.2,100,30.24,1.0,SW,9.2,-,N/A,,Unknown,220,2011-11-21 07:55:00
3:15 AM,57.2,57.2,100,30.23,4.0,SW,9.2,-,N/A,,Unknown,230,2011-11-21 08:15:00
3:35 AM,57.2,57.2,100,30.24,3.0,WSW,8.1,-,N/A,,Unknown,240,2011-11-21 08:35:00
3:55 AM,57.2,57.2,100,30.24,0.5,SW,9.2,-,N/A,,Unknown,230,2011-11-21 08:55:00
4:15 AM,57.2,57.2,100,30.24,0.2,SW,6.9,-,N/A,,Unknown,230,2011-11-21 09:15:00
4:35 AM,57.2,57.2,100,30.24,0.5,SW,8.1,-,N/A,,Unknown,220,2011-11-21 09:35:00
4:55 AM,57.2,57.2,100,30.25,0.8,WSW,8.1,-,N/A,,Unknown,240,2011-11-21 09:55:00
5:15 AM,57.2,57.2,100,30.26,2.0,SW,8.1,-,N/A,,Unknown,230,2011-11-21 10:15:00
5:35 AM,57.2,57.2,100,30.27,0.8,SW,9.2,-,N/A,,Unknown,230,2011-11-21 10:35:00
5:55 AM,57.2,57.2,100,30.27,0.2,SW,8.1,-,N/A,,Unknown,220,2011-11-21 10:55:00
6:15 AM,57.2,57.2,100,30.27,0.2,SW,8.1,-,N/A,,Unknown,230,2011-11-21 11:15:00
6:35 AM,57.2,57.2,100,30.28,0.2,WSW,9.2,-,N/A,,Unknown,240,2011-11-21 11:35:00
6:55 AM,57.2,57.2,100,30.29,0.2,SW,8.1,-,N/A,,Unknown,230,2011-11-21 11:55:00
7:15 AM,57.2,57.2,100,30.29,0.2,SW,8.1,-,N/A,,Unknown,230,2011-11-21 12:15:00
7:35 AM,57.2,57.2,100,30.29,0.2,SW,6.9,-,N/A,,Unknown,220,2011-11-21 12:35:00
7:55 AM,57.2,57.2,100,30.29,0.2,SW,6.9,-,N/A,,Unknown,230,2011-11-21 12:55:00
8:15 AM,59.0,57.2,94,30.30,0.2,SSW,5.8,-,N/A,,Unknown,210,2011-11-21 13:15:00
8:35 AM,59.0,57.2,94,30.30,1.0,SSW,9.2,-,N/A,,Unknown,210,2011-11-21 13:35:00
8:55 AM,59.0,57.2,94,30.30,4.0,SW,12.7,-,N/A,,Unknown,220,2011-11-21 13:55:00
9:15 AM,60.8,59.0,94,30.30,5.0,SW,11.5,-,N/A,,Unknown,220,2011-11-21 14:15:00
9:35 AM,59.0,57.2,94,30.29,2.5,SSW,10.4,-,N/A,,Unknown,210,2011-11-21 14:35:00
9:55 AM,60.8,57.2,88,30.28,5.0,SSW,8.1,-,N/A,,Unknown,200,2011-11-21 14:55:00
10:15 AM,60.8,59.0,94,30.29,10.0,WSW,8.1,-,N/A,,Unknown,250,2011-11-21 15:15:00
10:35 AM,60.8,57.2,88,30.29,10.0,WSW,12.7,17.3,N/A,,Unknown,240,2011-11-21 15:35:00
10:55 AM,60.8,55.4,82,30.29,10.0,SW,15.0,-,N/A,,Unknown,230,2011-11-21 15:55:00
11:15 AM,60.8,55.4,82,30.29,-9999.0,SW,15.0,-,N/A,,Unknown,230,2011-11-21 16:15:00
11:35 AM,60.8,55.4,82,30.29,10.0,SW,12.7,-,N/A,,Unknown,230,2011-11-21 16:35:00
11:55 AM,60.8,55.4,82,30.28,10.0,WSW,11.5,17.3,N/A,,Unknown,240,2011-11-21 16:55:00
12:15 PM,60.8,55.4,82,30.27,10.0,SW,10.4,-,N/A,,Unknown,230,2011-11-21 17:15:00
12:35 PM,60.8,55.4,82,30.26,10.0,WSW,8.1,11.5,N/A,,Unknown,240,2011-11-21 17:35:00
12:55 PM,60.8,55.4,82,30.27,10.0,West,5.8,-,N/A,,Unknown,260,2011-11-21 17:55:00
1:15 PM,59.0,55.4,88,30.27,5.0,WSW,8.1,-,N/A,,Unknown,240,2011-11-21 18:15:00
1:35 PM,57.2,55.4,94,30.27,5.0,WSW,6.9,-,N/A,,Unknown,240,2011-11-21 18:35:00
1:55 PM,57.2,55.4,94,30.26,5.0,SW,5.8,-,N/A,,Unknown,230,2011-11-21 18:55:00
2:15 PM,57.2,55.4,94,30.26,5.0,SW,5.8,-,N/A,,Unknown,220,2011-11-21 19:15:00
2:35 PM,57.2,55.4,94,30.25,5.0,SW,4.6,-,N/A,,Unknown,220,2011-11-21 19:35:00
2:55 PM,57.2,55.4,94,30.25,10.0,SSW,6.9,-,N/A,,Unknown,210,2011-11-21 19:55:00
3:15 PM,57.2,55.4,94,30.26,10.0,South,3.5,-,N/A,,Unknown,190,2011-11-21 20:15:00
3:35 PM,57.2,55.4,94,30.23,7.0,ESE,4.6,-,N/A,,Unknown,110,2011-11-21 20:35:00
3:55 PM,57.2,55.4,94,30.24,10.0,South,8.1,-,N/A,,Unknown,190,2011-11-21 20:55:00
4:15 PM,57.2,55.4,94,30.23,10.0,South,11.5,16.1,N/A,,Unknown,180,2011-11-21 21:15:00
4:35 PM,57.2,55.4,94,30.24,10.0,South,12.7,-,N/A,,Unknown,180,2011-11-21 21:35:00
5:15 PM,57.2,55.4,94,30.25,10.0,SW,5.8,-,N/A,,Unknown,220,2011-11-21 22:15:00
5:35 PM,57.2,55.4,94,30.25,10.0,SW,5.8,-,N/A,,Unknown,230,2011-11-21 22:35:00
5:55 PM,57.2,55.4,94,30.25,10.0,SW,6.9,-,N/A,,Unknown,230,2011-11-21 22:55:00
6:15 PM,57.2,55.4,94,30.25,10.0,SW,6.9,-,N/A,,Unknown,230,2011-11-21 23:15:00
6:35 PM,57.2,55.4,94,30.24,10.0,SSW,8.1,-,N/A,,Unknown,210,2011-11-21 23:35:00
6:55 PM,55.4,53.6,94,30.22,10.0,South,4.6,-,N/A,,Unknown,170,2011-11-21 23:55:00
7:15 PM,55.4,53.6,94,30.21,10.0,Calm,Calm,-,N/A,,Unknown,0,2011-11-22 00:15:00
7:35 PM,55.4,53.6,94,30.21,10.0,ESE,4.6,-,N/A,,Unknown,120,2011-11-22 00:35:00
7:55 PM,55.4,53.6,94,30.22,10.0,SSE,5.8,-,N/A,,Unknown,160,2011-11-22 00:55:00
8:15 PM,55.4,55.4,100,30.21,10.0,ESE,5.8,-,N/A,,Unknown,120,2011-11-22 01:15:00
8:35 PM,55.4,55.4,100,30.21,10.0,SSE,3.5,-,N/A,,Unknown,150,2011-11-22 01:35:00
8:55 PM,55.4,53.6,94,30.21,10.0,SSW,6.9,-,N/A,,Unknown,210,2011-11-22 01:55:00
9:15 PM,55.4,53.6,94,30.22,5.0,SSW,5.8,-,N/A,,Unknown,210,2011-11-22 02:15:00
9:35 PM,55.4,53.6,94,30.22,7.0,SW,6.9,-,N/A,,Unknown,230,2011-11-22 02:35:00
9:55 PM,55.4,55.4,100,30.22,7.0,SW,6.9,-,N/A,,Unknown,220,2011-11-22 02:55:00
10:15 PM,55.4,55.4,100,30.22,0.5,SW,4.6,-,N/A,,Unknown,220,2011-11-22 03:15:00
10:35 PM,55.4,55.4,100,30.22,0.2,SW,6.9,-,N/A,,Unknown,220,2011-11-22 03:35:00
10:55 PM,55.4,55.4,100,30.22,0.5,SW,6.9,-,N/A,,Unknown,220,2011-11-22 03:55:00
11:15 PM,55.4,55.4,100,30.22,0.2,South,4.6,-,N/A,,Unknown,190,2011-11-22 04:15:00
11:35 PM,55.4,53.6,94,30.21,0.2,Calm,Calm,-,N/A,,Unknown,0,2011-11-22 04:35:00
11:55 PM,55.4,55.4,100,30.21,10.0,SSE,4.6,-,N/A,,Unknown,160,2011-11-22 04:55:00